Hourly Data Report for October 13, 2013

All times are specified in Local Standard Time (LST). Add 1 hour to adjust for Daylight Saving Time where and when it is observed.

QIKIQTARJUAQ A
NUNAVUT

67°32'48.000" N
64°01'54.000" W
5.50 m
2400577
YVM

Download Data

Hourly Data (October 2013)
Hourly Data Report for October 13, 2013
Temp Definition
°C
Dew Point Temp Definition
°C
Rel Hum Definition
%
Wind Dir Definition
10's deg

Wind Spd Definition
km/h
Visibility Definition
km
Stn Press Definition
kPa
Hmdx Definition


Wind Chill Definition


Weather Definition


TIME
00:00 Legend Double Dagger 0.5 -3.1 77 20 33 16.1 101.11     LegendNANA
01:00 Legend Double Dagger 0.2 -3.7 75 24 11 16.1 101.21     LegendNANA
02:00 Legend Double Dagger -0.2 -2.4 85 7 18 16.1 101.30   -5 LegendNANA
03:00 Legend Double Dagger -0.3 -2.5 85 6 15 16.1 101.33   -5 LegendNANA
04:00 Legend Double Dagger 0.2 -2.2 84 2 8 16.1 101.37     LegendNANA
05:00 Legend Double Dagger -0.1 -2.2 86 22 4 16.1 101.38   -1 LegendNANA
06:00 Legend Double Dagger 0.7 -1.5 85 22 11 16.1 101.35     LegendNANA
07:00 Legend Double Dagger 1.3 -1.2 83 20 15 16.1 101.35     LegendNANA
08:00 Legend Double Dagger 1.1 -1.7 82 20 18 16.1 101.32     LegendNANA
09:00 Legend Double Dagger 1.1 -1.3 84 20 18 16.1 101.34     LegendNANA
10:00 Legend Double Dagger 1.0 -0.8 88 21 13 16.1 101.31     LegendNANA
11:00 Legend Double Dagger 1.0 -0.6 89 20 13 16.1 101.28     LegendNANA
12:00 Legend Double Dagger 1.2 -0.7 87 19 5 16.1 101.21     LegendNANA
13:00 Legend Double Dagger 1.0 -0.6 89 19 11 16.1 101.19     LegendNANA
14:00 Legend Double Dagger 0.7 -0.5 92 6 9 16.1 101.22     LegendNANA
15:00 Legend Double Dagger 0.6 -0.3 94 8 5 16.1 101.20     LegendNANA
16:00 Legend Double Dagger 0.6 -0.3 94 LegendMM 4 16.1 101.13     LegendNANA
17:00 Legend Double Dagger 1.2 -0.6 88 LegendMM 4 16.1 101.06     LegendNANA
18:00 Legend Double Dagger 1.0 -0.3 91   0 16.1 101.04     LegendNANA
19:00 Legend Double Dagger 0.6 -0.4 93 6 5 16.1 101.01     LegendNANA
20:00 Legend Double Dagger 0.7 -0.5 92 6 4 16.1 100.92     LegendNANA
21:00 Legend Double Dagger -0.1 -1.0 94 6 4 16.1 100.85   -1 LegendNANA
22:00 Legend Double Dagger -0.2 -0.8 96 8 5 16.1 100.80   -2 LegendNANA
23:00 Legend Double Dagger -0.3 -1.0 95 6 9 16.1 100.81   -3 LegendNANA

Notes on Data Quality.

Legend

  • E = Estimated
  • M = Missing
  • NA = Not Available
  • ‡ = Partner data that is not subject to review by the National Climate Archives
Date modified: